Location: Cardiff
(53.7833°N, 113.6000°W)
Time: 21:44:48
(UTC+00:00)

XW-2B - Visible Passes

Search period start: 13 September 2024 00:00
Search period end: 23 September 2024 00:00
Orbit: 375 x 378 km, 97.5° (Epoch: 13 September)

Date Brightness Start Highest point End Pass type
(mag) Time Alt. Az. Time Alt. Az. Time Alt. Az.
14 Sep ? 02:28:03 10° S 02:30:52 40° W 02:33:43 10° NNW visible
15 Sep ? 03:02:37 10° SW 03:04:38 17° W 03:06:39 10° NW visible
17 Sep ? 02:36:41 10° SSW 02:39:23 32° W 02:42:06 10° NNW visible
18 Sep ? 03:10:28 10° SW 03:12:08 14° W 03:13:48 10° WNW visible
20 Sep ? 02:42:17 10° SSW 02:44:53 28° W 02:47:31 10° NW visible
21 Sep ? 03:15:15 10° WSW 03:16:39 13° W 03:18:04 10° WNW visible
22 Sep ? 02:13:32 10° S 02:16:27 67° WSW 02:19:23 10° NNW visible
